Temperature
16 16 16 16 16 16 16 16 16 16 16 15 15 15 15 15 15 15 15 15 15 14 14 14 14 14 14 14 14 13 13 13 13 13 13 12 12 12
16 16 16 16 16 16 15 15 15 16 15 15 15 15 14 14 14 14 14 14 14 14 14 14 14 13 13 13 13 13 13 13 13 12 12 12 12 12
16 16 16 15 15 15 15 15 15 15 15 15 14 14 14 14 14 13 13 13 14 13 13 13 13 13 13 13 12 12 12 12 12 12 12 12 11 11
15 15 15 15 15 15 15 15 15 15 15 14 14 14 13 13 13 13 13 13 13 13 13 13 13 13 12 12 12 12 12 12 11 11 11 11 11 11
15 15 15 15 15 15 15 14 14 14 14 14 13 13 13 13 13 13 13 12 12 12 12 12 12 12 12 12 12 11 11 11 11 11 10 10 10 10
14 14 14 14 14 14 14 14 14 14 13 13 13 13 13 12 12 12 12 12 12 12 12 12 12 11 11 11 11 11 11 10 10 10 10 10 10 10
14 14 14 14 14 14 14 14 13 13 13 13 13 13 12 12 12 12 12 11 11 11 11 11 11 11 11 11 10 10 10 10 10 10 10 9 9 9
14 14 14 14 14 14 14 13 13 13 13 13 13 12 12 12 12 11 11 11 11 11 10 10 10 10 10 10 10 10 10 10 10 9 9 9 9 9
14 13 13 13 13 13 13 13 13 13 13 12 12 12 12 12 11 11 11 11 11 11 10 10 10 10 9 9 9 9 9 9 9 9 9 9 9 8
13 13 13 13 13 13 12 12 12 12 12 12 12 12 11 11 11 11 11 11 10 10 10 10 10 10 9 9 9 9 9 9 9 9 9 8 8 8
13 13 12 13 12 12 12 12 12 12 12 12 11 11 11 11 11 11 10 11 10 10 10 10 10 9 9 9 9 9 9 9 8 8 8 8 8 8
12 12 12 12 12 12 11 11 11 11 11 11 11 11 11 11 11 10 10 10 10 10 10 9 10 9 9 9 9 9 8 8 8 8 8 8 8 7
12 12 12 12 12 12 11 11 11 11 11 11 11 10 10 10 10 10 10 10 10 10 10 9 9 9 9 9 9 9 8 8 8 8 8 8 8 7
11 11 11 11 11 11 11 11 11 11 11 11 11 10 10 10 10 10 9 9 9 9 9 9 9 9 9 9 9 9 8 8 8 8 8 8 7 7
11 11 11 11 10 10 10 10 10 10 10 10 10 10 10 10 9 9 9 9 9 9 9 9 8 8 9 9 9 9 8 8 8 8 8 7 7 7
11 11 10 10 10 10 10 10 10 10 10 10 10 10 9 9 9 9 9 9 9 9 8 8 8 8 8 8 8 8 8 8 8 8 7 7 7 7
10 10 10 10 10 10 10 10 10 10 10 9 9 9 9 9 9 9 9 9 9 9 9 8 8 8 8 8 8 8 8 8 8 7 7 7 7 7
10 10 10 10 10 10 10 9 9 9 9 9 9 9 9 9 9 9 8 8 9 8 8 8 8 8 8 8 8 8 8 8 8 7 7 7 7 7
10 9 9 9 9 9 9 9 9 9 8 9 9 9 9 9 8 8 8 8 8 8 8 8 8 8 8 8 8 8 7 7 7 7 7 7 7 7
9 9 9 9 9 9 9 9 9 8 8 8 8 8 8 8 8 8 8 8 8 8 8 7 7 7 7 7 7 7 7 7 7 7 7 7 7 7
9 9 9 9 8 8 8 8 8 8 8 8 8 8 8 8 8 8 8 7 7 7 7 7 7 7 7 7 7 7 7 7 6 6 6 7 7 7
9 9 8 8 8 8 8 7 7 7 7 7 7 7 7 7 7 7 7 7 7 7 7 7 7 6 7 7 7 7 7 7 6 6 6 6 6 6
8 8 8 8 7 7 7 7 7 7 7 7 7 7 7 7 7 7 7 7 7 7 7 7 7 7 7 7 7 7 7 7 7 7 6 6 6 6
Wind_Speed
4 4 4 4 4 4 4 4 4 4 4 3 2 1 1 1 2 2 2 4 4 3 3 3 3 3 4 4 4 4 3 4 4 4 4 4 4 4
3 3 4 4 4 4 4 4 4 4 4 2 2 2 1 1 3 2 3 5 5 4 4 4 4 4 5 5 5 5 5 5 5 5 5 5 5 5
3 4 4 4 3 3 3 3 3 3 4 2 1 2 2 2 2 2 2 2 4 6 5 5 5 5 6 6 6 6 6 6 6 6 6 6 6 6
3 3 3 3 3 3 2 3 2 2 3 3 2 2 2 2 2 2 2 2 3 7 7 5 5 5 6 6 5 6 6 6 6 6 6 6 5 5
3 3 3 2 2 2 2 2 2 3 3 4 3 2 2 2 2 2 2 2 3 6 7 6 6 7 7 6 6 6 6 6 6 6 5 5 5 5
3 3 2 2 2 2 2 2 2 2 3 3 3 3 2 3 3 3 2 2 1 3 5 6 7 8 7 7 6 6 6 6 6 6 5 5 4 4
3 3 3 3 4 2 1 1 2 2 3 3 3 3 3 3 3 3 2 2 2 2 2 3 4 4 5 6 6 6 6 5 5 5 5 5 4 4
2 2 2 3 3 3 3 3 2 1 2 2 2 2 2 2 2 2 2 2 1 2 2 2 2 2 3 4 6 6 6 6 5 5 5 5 5 5
2 2 1 2 2 1 2 3 3 3 2 2 0 1 1 1 2 3 3 2 1 2 2 2 2 2 3 4 7 6 6 6 6 6 6 6 6 7
2 2 2 2 3 2 2 3 3 2 1 1 1 1 1 0 2 2 2 2 2 2 2 2 2 2 3 4 7 7 7 7 7 7 6 6 7 8
3 3 3 3 5 4 1 2 2 2 4 4 3 3 3 1 1 1 2 2 2 2 2 2 2 2 3 3 7 9 9 9 9 8 8 7 8 9
2 3 6 4 5 4 1 1 1 1 1 2 2 2 2 2 2 1 1 2 1 1 1 2 2 2 2 3 4 7 8 10 12 11 11 10 10 8
1 2 3 4 4 4 2 1 1 1 1 1 2 2 1 1 2 1 1 2 2 1 1 2 2 2 2 2 3 4 6 6 8 10 12 13 12 10
1 2 3 3 3 3 2 3 3 3 1 1 1 1 1 0 0 0 0 1 2 2 1 2 3 3 3 3 3 3 4 5 5 6 7 11 13 13
2 4 3 1 3 2 2 2 2 1 0 0 0 0 0 1 0 1 2 2 2 1 1 2 3 3 4 4 4 3 3 3 5 5 5 6 7 8
2 3 4 2 2 1 2 1 0 1 1 1 1 1 1 0 1 1 2 2 2 2 2 2 3 4 4 5 5 4 4 4 4 4 5 6 8 9
1 1 1 1 1 1 1 1 0 0 1 1 1 1 1 1 1 1 2 2 3 2 2 2 3 4 4 5 5 5 5 5 4 4 5 6 6 7
1 1 1 0 0 1 0 0 0 1 1 2 1 2 2 2 2 2 2 3 3 3 3 2 3 3 4 4 4 5 5 5 4 4 6 6 6 6
1 0 0 1 1 1 1 1 1 1 2 2 2 2 2 3 2 3 3 4 4 4 3 3 3 4 6 5 4 5 5 5 5 5 6 6 7 5
1 1 1 1 1 2 2 2 2 2 2 3 3 3 3 3 4 4 3 3 4 4 4 3 4 4 6 6 6 5 7 6 5 6 6 7 6 5
0 1 1 1 1 1 2 2 3 3 3 3 3 3 4 4 4 4 4 3 5 5 5 4 2 4 6 6 7 6 4 7 6 6 7 7 7 6
1 1 1 1 2 2 2 2 3 3 3 3 3 4 4 4 4 5 4 4 4 5 5 5 3 4 6 7 7 7 6 5 8 11 9 8 6 7
0 1 1 1 1 1 2 2 3 3 3 3 4 4 4 4 4 4 4 5 5 5 6 5 5 5 6 7 7 7 8 7 6 6 7 11 13 12
Wind_Direction
257 252 257 258 246 245 243 238 241 253 250 217 202 181 144 120 111 102 83 99 116 128 143 153 157 154 155 153 153 152 158 164 166 168 173 172 167 158
271 276 270 271 258 248 244 242 243 249 256 249 200 192 171 154 123 118 102 114 120 132 129 130 137 140 145 149 147 144 145 143 139 140 140 138 137 138
277 273 274 278 266 251 237 232 232 236 243 250 195 161 172 200 139 139 139 132 115 127 127 125 132 137 139 138 138 139 138 135 132 132 132 130 130 130
297 299 293 279 266 254 236 225 232 230 220 221 209 186 185 176 158 177 133 116 106 115 123 123 127 131 131 129 131 133 133 133 131 131 131 131 134 135
321 316 311 301 283 266 243 233 226 215 211 207 200 178 179 165 168 154 140 136 131 127 128 128 128 122 119 121 123 123 128 132 132 130 130 129 129 135
351 347 342 332 317 295 259 241 234 228 212 203 193 172 165 170 179 178 169 163 152 131 115 120 125 128 128 130 130 130 130 130 134 135 133 131 134 141
9 11 21 30 24 12 339 291 232 228 213 196 195 188 180 178 195 200 177 154 139 135 138 146 147 146 145 152 151 150 148 147 148 150 151 151 153 158
17 20 45 63 77 79 55 39 14 240 214 204 197 197 188 192 203 200 178 181 181 151 187 177 169 162 158 150 146 160 170 170 171 170 172 173 174 174
23 10 19 51 65 85 118 128 77 37 6 302 257 252 212 210 208 199 196 210 210 164 194 194 184 183 163 135 148 167 179 187 191 189 188 190 189 184
43 31 36 35 31 20 87 96 92 76 44 20 20 333 337 264 219 213 181 165 162 160 209 224 190 191 176 160 162 175 191 200 201 200 200 201 201 199
56 45 32 43 13 349 48 97 106 111 96 82 57 54 50 45 305 206 178 186 196 172 203 242 213 208 199 192 176 185 197 203 206 207 210 214 215 214
74 70 50 29 19 356 57 90 89 78 96 117 122 138 135 139 177 246 246 240 245 187 162 244 222 215 217 204 192 192 201 206 209 213 216 219 223 228
73 65 55 48 38 16 351 44 1 303 171 148 135 132 141 146 167 190 299 305 301 303 161 220 250 244 251 233 220 209 211 207 205 212 216 220 224 232
49 59 69 74 62 34 32 16 322 281 222 166 134 122 119 118 116 156 353 338 346 343 305 270 270 272 271 268 254 225 219 217 220 224 216 204 217 228
69 68 76 150 180 123 87 307 275 256 273 92 60 42 41 39 172 177 184 215 238 237 213 256 279 278 273 274 272 262 253 238 230 232 229 225 226 222
121 144 174 196 196 113 157 200 275 342 311 316 339 345 345 245 232 249 246 232 245 221 199 237 261 279 276 280 279 272 265 259 249 245 248 243 236 235
167 138 120 107 116 111 112 100 12 23 325 309 305 298 284 274 289 303 298 281 272 272 254 237 242 252 264 276 277 276 274 267 257 247 252 260 256 244
252 121 108 84 0 5 332 114 75 357 323 312 316 310 297 292 288 281 284 284 283 283 293 291 283 283 269 250 252 271 272 273 271 251 255 261 260 249
205 105 39 351 342 338 338 337 336 343 314 303 300 297 294 288 286 282 282 286 287 288 289 286 282 282 285 284 246 234 276 283 282 276 268 267 268 265
43 22 358 343 337 329 328 326 318 309 296 295 297 295 292 285 281 279 278 289 289 285 279 273 275 282 287 293 293 266 231 263 278 281 280 274 269 247
52 6 329 319 324 320 319 316 310 303 301 289 290 290 286 282 282 283 280 262 269 275 277 277 287 269 279 279 279 277 252 215 240 276 288 284 278 267
337 303 311 322 325 317 305 299 289 291 295 290 298 291 287 286 285 281 283 282 279 286 289 289 282 270 273 279 286 288 282 250 224 225 240 258 284 287
292 300 293 305 309 297 297 291 288 296 303 307 304 297 291 287 286 284 282 279 282 287 284 280 277 271 274 279 283 284 282 273 264 249 233 218 226 239
Height
1538 1538 1537 1537 1537 1538 1538 1539 1540 1539 1540 1540 1540 1540 1540 1540 1539 1539 1539 1538 1538 1538 1538 1538 1537 1537 1537 1537 1538 1538 1538 1538 1538 1539 1539 1539 1540 1540
1536 1535 1534 1534 1534 1534 1535 1535 1535 1536 1536 1537 1537 1537 1537 1538 1537 1537 1537 1536 1536 1535 1535 1535 1534 1534 1535 1535 1535 1535 1535 1535 1535 1536 1536 1536 1537 1537
1534 1533 1532 1531 1531 1531 1531 1532 1532 1533 1533 1534 1534 1534 1534 1535 1535 1535 1535 1534 1534 1533 1533 1532 1532 1532 1532 1532 1532 1532 1532 1532 1533 1533 1533 1533 1534 1534
1532 1531 1530 1529 1528 1528 1529 1529 1529 1530 1530 1531 1531 1532 1532 1532 1532 1532 1533 1533 1532 1531 1531 1530 1530 1530 1530 1530 1530 1530 1530 1530 1530 1530 1530 1530 1531 1531
1530 1528 1527 1527 1526 1526 1526 1526 1527 1527 1528 1528 1529 1529 1530 1530 1530 1530 1530 1530 1530 1530 1529 1529 1528 1528 1528 1528 1528 1528 1528 1528 1528 1528 1528 1528 1528 1529
1528 1527 1526 1525 1524 1524 1524 1524 1524 1525 1525 1526 1526 1527 1527 1527 1528 1528 1528 1528 1529 1529 1528 1527 1527 1526 1526 1526 1526 1526 1526 1526 1526 1526 1526 1526 1526 1527
1527 1526 1526 1524 1523 1523 1523 1522 1522 1522 1523 1523 1524 1524 1525 1525 1526 1526 1526 1527 1526 1526 1526 1526 1525 1525 1525 1525 1524 1524 1524 1524 1524 1524 1524 1524 1524 1525
1526 1525 1525 1524 1523 1522 1521 1521 1521 1521 1522 1522 1522 1522 1522 1523 1523 1524 1524 1525 1525 1525 1525 1525 1525 1524 1524 1524 1523 1523 1523 1522 1522 1522 1522 1522 1522 1522
1525 1524 1524 1523 1522 1521 1521 1520 1520 1520 1520 1521 1521 1521 1521 1521 1521 1522 1522 1522 1522 1522 1523 1523 1524 1523 1523 1522 1522 1521 1521 1521 1521 1520 1520 1520 1520 1520
1524 1524 1523 1522 1522 1521 1521 1520 1519 1519 1520 1520 1520 1520 1520 1519 1520 1520 1520 1520 1520 1520 1521 1522 1522 1522 1522 1521 1520 1520 1519 1519 1519 1518 1518 1518 1518 1518
1524 1523 1522 1522 1521 1521 1520 1519 1519 1519 1519 1519 1519 1518 1518 1518 1518 1519 1519 1519 1519 1519 1519 1520 1520 1520 1520 1519 1518 1518 1517 1517 1517 1516 1516 1515 1515 1515
1523 1522 1521 1521 1520 1520 1520 1519 1519 1519 1519 1518 1518 1518 1518 1517 1517 1517 1518 1518 1518 1518 1518 1518 1518 1518 1518 1518 1517 1516 1515 1515 1514 1514 1514 1513 1513 1513
1523 1522 1521 1520 1520 1519 1519 1519 1518 1519 1519 1518 1518 1518 1517 1517 1517 1516 1516 1517 1517 1516 1516 1516 1516 1516 1516 1515 1515 1515 1514 1513 1512 1512 1511 1511 1511 1511
1522 1522 1521 1520 1519 1519 1518 1518 1518 1518 1519 1518 1518 1517 1517 1517 1516 1516 1515 1515 1515 1515 1514 1514 1514 1514 1514 1513 1513 1512 1512 1511 1511 1510 1510 1509 1508 1508
1521 1520 1520 1519 1519 1518 1518 1517 1517 1518 1518 1518 1517 1517 1517 1516 1515 1515 1514 1514 1513 1513 1513 1512 1512 1512 1512 1511 1510 1510 1509 1509 1508 1508 1507 1506 1506 1506
1520 1520 1519 1519 1518 1518 1518 1517 1517 1517 1517 1517 1517 1516 1516 1515 1515 1514 1514 1513 1513 1512 1511 1511 1510 1510 1510 1509 1509 1507 1507 1506 1505 1504 1504 1503 1503 1503
1520 1520 1520 1519 1519 1518 1517 1517 1517 1516 1516 1516 1515 1515 1514 1514 1513 1513 1512 1511 1511 1511 1510 1509 1508 1507 1507 1506 1506 1505 1504 1503 1502 1501 1501 1500 1500 1499
1520 1520 1520 1519 1518 1518 1517 1517 1516 1515 1515 1514 1514 1513 1513 1512 1511 1511 1510 1510 1509 1508 1508 1507 1506 1505 1505 1504 1503 1502 1501 1500 1499 1498 1497 1497 1496 1496
1519 1519 1519 1518 1518 1517 1516 1515 1515 1514 1513 1513 1512 1512 1511 1510 1509 1509 1508 1507 1507 1506 1505 1504 1504 1503 1502 1500 1499 1499 1498 1497 1496 1495 1494 1493 1492 1492
1518 1518 1517 1517 1516 1515 1515 1514 1513 1512 1511 1511 1510 1509 1508 1508 1507 1506 1505 1505 1504 1503 1503 1502 1501 1500 1499 1499 1497 1496 1494 1494 1493 1492 1491 1490 1489 1488
1517 1516 1516 1515 1514 1513 1512 1512 1511 1510 1509 1509 1508 1507 1506 1505 1505 1504 1503 1502 1501 1501 1500 1499 1498 1497 1496 1495 1494 1492 1491 1490 1489 1488 1487 1486 1485 1484
1515 1515 1514 1513 1512 1511 1510 1510 1509 1508 1507 1507 1506 1505 1504 1503 1502 1501 1501 1500 1499 1498 1497 1496 1495 1494 1493 1492 1490 1489 1488 1487 1485 1483 1483 1482 1482 1480
1514 1513 1512 1511 1510 1509 1508 1507 1507 1506 1505 1504 1503 1502 1501 1500 1500 1499 1498 1497 1496 1495 1494 1493 1492 1491 1490 1488 1487 1486 1484 1483 1482 1480 1479 1477 1477 1476